Regional Weather Roundup
Issued by NWS

Home | Current Version | Previous Version | Graphics & Text | Print | Product List | Glossary On
Versions: 1 2 3 4 5 6 7 8 9 10 11 12 13 14 15 16 17 18 19 20 21 22 23 24 25 26 27 28 29 30 31 32 33 34 35 36 37 38 39 40 41 42 43 44 45 46 47 48 49 50
000
ASUS45 KBOU 270807
RWRCO

WEATHER ROUNDUP FOR COLORADO
NATIONAL WEATHER SERVICE DENVER/BOULDER CO
200 AM MDT WED JUL 27 2016

NOTE: "FAIR" INDICATES FEW OR NO CLOUDS BELOW 12000 FEET WITH NO
SIGNIFICANT WEATHER AND/OR OBSTRUCTIONS TO VISIBILITY.

COZ001>005-013-030-031-270900-
...NORTHWEST COLORADO...

CITY           SKY/WX    TMP DP  RH WIND       PRES   REMARKS
CRAIG          FAIR      51  43  74 SE3       30.25S
HAYDEN         FAIR      57  37  47 E13       30.27F
MEEKER         FAIR      55  42  61 NE6       30.27S
MOUNT WERNER   NOT AVBL
STEAMBOAT SPGS NOT AVBL
WALDEN         FAIR      41  32  70 E6        30.41F
$$

COZ006>008-011-270900-
...WEST CENTRAL VALLEYS...

CITY           SKY/WX    TMP DP  RH WIND       PRES   REMARKS
GRAND JUNCTION FAIR      69  43  38 SE8       30.12F
MONTROSE       FAIR      62  43  49 SE5       30.24R
EAGLE          FAIR      55  39  54 CALM      30.34S
RIFLE          FAIR      62  41  46 E5        30.21F
DELTA          FAIR      71  38  30 NE9       30.19R
NUCLA          FAIR      64  41  42 SE10      30.26S
$$

COZ017>023-064>068-270900-
...SOUTHWEST COLORADO...

CITY           SKY/WX    TMP DP  RH WIND       PRES   REMARKS
DURANGO        FAIR      58  49  72 N7        30.29F
CORTEZ         FAIR      58  46  64 CALM      30.23S
PAGOSA SPRINGS FAIR      57  44  61 CALM      30.37F
TELLURIDE      FAIR      56  40  55 SE3       30.51R
WOLF CREEK PAS FAIR      48  34  57 NE3       30.71S
$$

COZ009-010-012-014-032>034-037-058>063-270900-
...CENTRAL COLORADO...

CITY           SKY/WX    TMP DP  RH WIND       PRES   REMARKS
ASPEN          FAIR      52  39  61 SW8       30.38S
BUENA VISTA    FAIR      56  36  45 NW14G20   30.40F
COPPER MTN     FAIR      54  25  32 CALM      30.70F
BERTHOUD PASS  FAIR      45  32  61 N16       30.72F
COTTONWOOD PAS FAIR      61  30  31 SW15      30.53F
GUNNISON       FAIR      54  39  58 NE3       30.43S
KREMMLING      FAIR      45  41  87 CALM      30.41R
LEADVILLE      FAIR      39  31  72 NE3       30.54F
MONARCH PASS   FAIR      50  30  46 NW7       30.79S
SALIDA         FAIR      56  43  61 SW6       30.45S
SUNLIGHT       FAIR      57  32  38 MISG      30.62F
WILKERSON PASS FAIR      52  30  43 W7        30.65F
$$

COZ069>075-270900-
...SAN LUIS VALLEY/SANGRE DE CRISTO MOUNTAINS...

CITY           SKY/WX    TMP DP  RH WIND       PRES   REMARKS
ALAMOSA        FAIR      55  48  77 W6        30.35F
LA VETA PASS   FAIR      54  37  54 CALM      30.54F
SAGUACHE       FAIR      55  41  58 N8        30.39S
$$

COZ035-036-038>040-270900-
...NORTHERN COLORADO FRONT RANGE...

CITY           SKY/WX    TMP DP  RH WIND       PRES   REMARKS
DENVER INTL AP FAIR      61  42  49 S8        30.15S
DMNS CITY PARK   N/A     66  49  55 S5        30.15R
AURORA         PTCLDY    67  43  41 S10       30.18R
FRONT RANGE AP NOT AVBL
ERIE MUNI ARPT FAIR      61  47  61 CALM      30.14S
BOULDER MUN AP FAIR      68  41  37 CALM      30.15F
CENTENNIAL     FAIR      68  41  37 S15G21    30.19R
BROOMFIELD     FAIR      68  45  42 N10       30.17F
LONGMONT       FAIR      62  46  55 CALM      30.15S
$$

COZ041-046-047-076>085-087-088-270900-
...PIKES PEAK/PALMER DIVIDE AND SOUTHERN FOOTHILLS...

CITY           SKY/WX    TMP DP  RH WIND       PRES   REMARKS
COLO. SPRINGS  MOCLDY    66  58  75 SE6       30.28S
A. F. ACADEMY  MOCLDY    64  54  68 S5        30.29S
SCHRIEVER AFB  NOT AVBL
ELLICOTT       FAIR     N/A N/A N/A SE15G26   30.24S
FALCON         NOT AVBL
FORT CARSON    FAIR      67  58  74 E3        30.24R
LIMON          NOT AVBL
MONUMENT HILL  MOCLDY    61  59  94 S18       30.32S
TRINIDAD       NOT AVBL
$$

COZ042>045-048>051-090-091-270900-
...NORTHEAST COLORADO...

CITY           SKY/WX    TMP DP  RH WIND       PRES   REMARKS
GREELEY ARPT   FAIR      57  52  82 NW7       30.12S
AKRON          FAIR      68  54  60 S9        30.12S
BURLINGTON     FAIR      70  58  65 SW13      30.08F
WRAY           FAIR      64  57  77 N6        30.09R
STERLING       FAIR      64  54  68 CALM      30.08R
HOLYOKE        FAIR      64  59  82 W5        30.11R
FORT MORGAN    FAIR      62  53  73 SE9       30.11F
$$

COZ086-089-092>099-270900-
...SOUTHEAST COLORADO...

CITY           SKY/WX    TMP DP  RH WIND       PRES   REMARKS
PUEBLO         FAIR      72  60  66 E14       30.14S
LA JUNTA       FAIR      70  62  76 E18G28    30.12S
LAMAR          CLOUDY    69  61  75 E22       30.13R
SPRINGFIELD      N/A     67  64  90 NE8       30.14F
$$



USA.gov is the U.S. government's official web portal to all federal, state and local government web resources and services.